{"data":{"norad_id":67518,"epoch":"2026-09-19T19:28:49.469088Z","epoch_age_seconds":131737,"freshness":"FRESH","line1":"1 67518U 26012AB  26262.81168367  .00008917  00000+0  33303-3 0  9995","line2":"2 67518  43.0061 297.8057 0001714 271.5124  88.5531 15.27594768 37459","mean_motion":15.27594768,"eccentricity":0.0001714,"inclination_deg":43.0061,"raan_deg":297.8057,"arg_perigee_deg":271.5124,"mean_anomaly_deg":88.5531,"bstar":0.00033303,"rev_number":3745,"period_min":94.265837391242,"perigee_km":481.82887597365,"apogee_km":484.18087540864,"semimajor_km":6861.1418756911,"source":"CELESTRAK","updated_at":"2026-09-20T09:00:43.563638Z"}}